Location: Foligno
(42.9600°N, 12.7050°E)
Time: 07:50:18
(UTC+02:00)

ISS - Pass Details

Date: 17 May 2018
Orbit: 402 x 407 km, 51.6° (Epoch: 24 May)

Event Time Altitude Azimuth Distance (km) Brightness Sun altitude
Rises 04:13:04 0° 304° (NW) 2,319 -0.1 -14.3°
Reaches altitude 10° 04:15:26 10° 320° (NW) 1,458 -1.0 -14.0°
Maximum altitude 04:18:07 23° 15° (NNE) 916 -1.3 -13.6°
Drops below altitude 10° 04:20:47 10° 70° (ENE) 1,455 0.1 -13.3°
Sets 04:23:09 0° 86° (E) 2,313 0.9 -13.0°
